This is the latest recevied weather packets stored in our database for station/object KQ4NAL. If no packets are shown the sender has not sent any weather packets the latest 10 day(s).
| Time | Temp. | Humidity | Pressure | Rain* | Wind** | Luminosity | Snow |
|---|---|---|---|---|---|---|---|
| 1778115761 | 11.67° C | 73% | 1015.2 hPa | 0 mm | - | 0 W/m² | - |
| 1778115458 | 11.67° C | 69% | 1015.3 hPa | 0 mm | - | 0 W/m² | - |
| 1778115154 | 12.22° C | 67% | 1015 hPa | 0 mm | - | 0 W/m² | - |
| 1778114851 | 12.22° C | 66% | 1015 hPa | 0 mm | - | 0 W/m² | - |
| 1778114549 | 12.78° C | 65% | 1015.1 hPa | 0 mm | - | 0 W/m² | - |
| 1778114245 | 12.78° C | 64% | 1015 hPa | 0 mm | - | 2 W/m² | - |
| 1778113940 | 12.78° C | 63% | 1015.3 hPa | 0 mm | - | 5 W/m² | - |
| 1778113637 | 13.33° C | 64% | 1015 hPa | 0 mm | - | 12 W/m² | - |
| 1778113333 | 13.33° C | 64% | 1014.9 hPa | 0 mm | - | 19 W/m² | - |
| 1778113029 | 13.33° C | 61% | 1014.7 hPa | 0 mm | - | 25 W/m² | - |
| 1778112727 | 13.89° C | 61% | 1015 hPa | 0 mm | - | 34 W/m² | - |
| 1778112423 | 13.89° C | 61% | 1014.7 hPa | 0 mm | - | 40 W/m² | - |
| 1778112119 | 13.89° C | 61% | 1014.8 hPa | 0 mm | - | 50 W/m² | - |
| 1778111816 | 13.89° C | 60% | 1014.8 hPa | 0 mm | - | 64 W/m² | - |
| 1778111511 | 13.89° C | 58% | 1014.8 hPa | 0 mm | - | 65 W/m² | - |
| 1778111209 | 13.89° C | 58% | 1014.7 hPa | 0 mm | - | 68 W/m² | - |
| 1778110905 | 14.44° C | 58% | 1014.6 hPa | 0 mm | - | 81 W/m² | - |
| 1778110603 | 14.44° C | 56% | 1014.2 hPa | 0 mm | - | 88 W/m² | - |
| 1778110300 | 14.44° C | 57% | 1014.1 hPa | 0 mm | - | 96 W/m² | - |
| 1778109996 | 14.44° C | 58% | 1014.2 hPa | 0 mm | - | 95 W/m² | - |
| 1778109691 | 14.44° C | 57% | 1014.2 hPa | 0 mm | - | 95 W/m² | - |
| 1778109389 | 14.44° C | 56% | 1014.2 hPa | 0 mm | - | 95 W/m² | - |
| 1778109087 | 14.44° C | 56% | 1014.1 hPa | 0 mm | - | 132 W/m² | - |
| 1778108784 | 14.44° C | 56% | 1014.2 hPa | 0 mm | - | 146 W/m² | - |
| 1778108481 | 14.44° C | 56% | 1013.9 hPa | 0 mm | - | 133 W/m² | - |
* Rain latest hour (hover to see other rain measurements)
** Current wind speed in m/s (hover to see current wind gust speed)